Regional Weather Roundup
Issued by NWS Newport/Morehead, NC

Current Version | Previous Version | Text Only | Print | Product List | Glossary On
Versions: 1 2 3 4 5 6 7 8 9 10 11 12 13 14 15 16 17 18 19 20 21 22 23 24 25 26 27 28 29 30 31 32 33 34 35 36 37 38 39 40 41 42 43 44 45 46 47 48 49 50
000
ASUS42 KMHX 250522
RWRMHX
WEATHER ROUNDUP FOR EASTERN NORTH CAROLINA
NATIONAL WEATHER SERVICE NEWPORT/MOREHEAD CITY NC
100 AM EDT SAT OCT 25 2014

NOTE: "FAIR" INDICATES FEW OR NO CLOUDS BELOW 12,000 FEET
WITH NO SIGNIFICANT WEATHER AND/OR OBSTRUCTIONS TO VISIBILITY

NCZ015>017-031-032-045>047-102-103-250600-
NORTH COAST

CITY           SKY/WX    TMP DP  RH WIND       PRES   REMARKS
EDENTON        CLEAR     47  46  95 CALM      29.97R
ELIZABETH CITY CLEAR     51  44  77 W6        29.96S
KITTY HAWK     CLEAR     57  51  80 W3        29.94S
MANTEO         CLEAR     50  49  97 CALM      29.96S FOG

$$

NCZ045>047-081-094-103-104-250600-
CENTRAL COAST

CITY           SKY/WX    TMP DP  RH WIND       PRES   REMARKS
FRISCO         CLEAR     59  53  80 NW5       29.96S
SWANQUARTER      N/A     50 N/A N/A W1        29.94S

$$

NCZ095-097-098-100-101-250600-
SOUTHERN COAST

CITY           SKY/WX    TMP DP  RH WIND       PRES   REMARKS
BEAUFORT       CLEAR     57  51  80 NW7       29.98S
CEDAR ISLAND     N/A     59 N/A N/A W5        30.00S
JACKSONVILLE   PTCLDY    50  48  93 W5        29.98S
PINEY ISLAND   CLEAR     60  52  74 W6        29.96F
WILMINGTON     PTCLDY    51  49  92 CALM      29.99F


$$

NCZ011>013-027>030-043-044-078>080-089-090>093-098-250600-
COASTAL PLAIN

CITY           SKY/WX    TMP DP  RH WIND       PRES   REMARKS
AHOSKIE        CLEAR     44  43  97 CALM      29.97S
CLINTON        PTCLDY    47  47 100 CALM      29.99F
ELIZABETHTOWN  MOCLDY    50  48  93 CALM      29.99S
GOLDSBORO      PTCLDY    48  48  98 CALM      29.96F
GREENVILLE     LGT RAIN  46  46 100 CALM      29.99S
HAVELOCK       CLEAR     49  46  90 CALM      29.99S
KENANSVILLE    PTCLDY    44  44  98 CALM      30.00R
KINSTON        CLEAR     46  45  97 CALM      29.99S
NEW BERN       CLEAR     50  47  89 CALM      29.99S
RICHLANDS      PTCLDY    45  41  87 CALM      29.99S
ROCKY MOUNT    CLEAR     44  43  96 CALM      29.98S
WASHINGTON     CLEAR     47  46  97 CALM      29.98S
WHITEVILLE     MOCLDY    51  49  92 SW3       29.99S

$$

AMZ130-135-150-152-154-156-158-170-250-252-270-ANZ085-086-088-633-658-670-250600-
MARINE OBSERVATIONS

STATION/POSITION TIME  TEMP    WIND        PRES    WAVE   SWELL
                       AIR SEA DIR/SP/G            HT/PER HT/PER
                 (UTC) (F)     (DEG/KT/KT) (MB)    (FT/S) (FT/S)
CHESAPEAKE LIGHT 0500   64     330/ 14/ 16 1014.6
64 E VA BEACH    0500   66 66  330/ 16/ 17 1013.0    4/ 8   2/ 8
DUCK             0500   59 66  290/  5/  6 1013.5
2 E DUCK         0500                        N/A     3/10
10 NE DUCK       0500      67                N/A     3/ 9   2/11
OREGON INLET     0500   58 64  280/  4/  6 1014.2
13E OREGON INLT  0500      69                N/A     4/ 9   2/11
HATTERAS CG      0500   64 65  320/  9/ 10 1014.8
DIAMOND BUOY     0500   66     320/ 14/ 17 1014.6    4/ 9   3/ 9
17 S OCRACOKE    0400          VRB 12/ 16  1014.5
CAPE LOOKOUT     0500   64     320/  7/  8 1014.8
BEAUFORT LAB     0500   59 67  330/  3/  6 1014.2
30 SE NEW RIVER  0500   68 74  320/  8/ 12 1014.8    3/ 9   3/ 9
5 SE WRIGHTSVLE  0500   61 72  310/  8/ 10   N/A
225 S CAPE HAT   0450   71 77  360/  8/ 10 1014.9    4/ 9   3/ 9
41 SE CHARLESTON 0500   69 78  340/  4/  6 1015.6    3/10   3/10

$$



USA.gov is the U.S. government's official web portal to all federal, state and local government web resources and services.